[[{"header":{"parameterUnit":"m.s-1","parameterCategory":1,"la1":30.2991,"la2":30.254,"lo1":-89.0895,"lo2":-89.0444,"dy":0.0017,"dx":0.0017,"nx":28,"ny":28,"refTime":"2025-11-05T09:00:00:Z","depth":0,"parameterNumber":2,"parameterNumberName":"U-component_of_WINDS"},"data":[0,0,0,0,0,0,0,0,0,0,0,0,0,0,0,0,0,0,0,0,0,0,0,0,0,0,0,0,0,0,0,0,0,0,0,0,0,0,0,0,0,0,0,0,0,0,0,0,0,0,0,0,0,0,0,0,0,0,-3.9857,-3.9858,0,-3.9915,-3.9915,-3.9916,-3.9823,-3.982,-3.9816,-3.9813,-3.9873,-3.9877,-3.9882,0,0,0,0,0,0,0,0,0,0,0,0,0,-3.9668,-3.9672,-3.9857,-3.9858,-3.9859,-3.9915,-3.9915,-3.9916,-3.9823,-3.9819,-3.9816,-3.9812,-3.9871,-3.9876,-3.9882,0,0,0,0,0,0,0,0,0,0,0,0,0,-3.974,-3.9673,-3.9857,-3.9819,-3.9816,-3.9914,-3.9915,-3.9916,-3.9824,-3.9819,-3.9815,-3.981,-3.9869,-3.9876,-3.9883,-4.0021,0,0,-3.9904,-3.9907,0,0,0,0,0,0,0,0,-3.9736,-3.9747,-3.9824,-3.9822,-3.9819,-3.9857,-3.987,-3.9951,-3.9825,-3.9821,-3.9813,-3.9808,-3.9871,-3.9878,-3.9899,-4.0024,-4.0026,-3.9904,-3.9908,-3.9911,-3.9913,0,0,0,0,0,0,0,-3.9731,-3.9744,-3.988,-3.9825,-3.9822,-3.9799,-3.9804,-3.9885,-3.9872,-3.9821,-3.9814,-3.9823,-3.9869,-3.9893,-3.99,-4.0027,-3.9904,-3.991,-3.9914,-3.9917,-4.027,-4.0275,0,0,0,0,0,0,-3.9731,-3.9741,-3.9878,-3.9882,-3.9765,-3.9807,-3.9812,-3.9849,-3.9871,-3.987,-3.9827,-3.9818,-3.9883,-3.9892,-3.9901,-4.0066,-3.9911,-3.9918,-3.9922,-4.0265,-4.0271,-4.0277,0,0,0,0,0,0,-3.9727,-3.9744,-3.9876,-3.9809,-3.9824,-3.9815,-3.9857,-3.9853,-3.9877,-3.9875,-3.9873,-3.9853,-3.988,-3.9892,-3.9992,-4.0067,-3.9921,-3.9927,-4.0259,-4.0267,-4.0274,-4.0397,0,0,0,0,0,0,-3.9722,-3.9743,-3.9795,-3.9811,-3.9828,-3.9966,-3.9862,-3.9858,-3.9889,-3.9878,-3.99,-3.9899,-3.9877,-3.9983,-3.9999,-4.0074,-3.9932,-4.0252,-4.0262,-4.0272,-4.0386,-4.0408,-4.0427,0,0,0,0,0,-3.9716,-3.9827,-3.9799,-3.9816,-3.9893,-3.997,-3.998,-3.9953,-3.9895,-3.9948,-3.9947,-3.9898,-4.0056,-3.9994,-4.0011,-4.0089,-4.0247,-4.0259,-4.0271,-4.0377,-4.0404,-4.0426,0,0,0,0,0,0,-3.982,-3.9829,-3.9797,-3.9917,-3.9944,-3.9954,-4.002,-3.9982,-4.0025,-4.0014,-3.9978,-3.9984,-4.0092,-4.01,-4.0031,-4.0225,-4.0142,-4.0158,-4.0216,-4.0242,-4.0262,-4.0258,-3.9938,0,0,0,0,0,-3.9857,-3.9919,-3.9923,-4.0028,-4.0043,-4.003,-4.0062,-4.0039,-4.0065,-4.0076,-4.0083,-4.0111,-4.0166,-4.0204,-4.0255,-4.0386,-4.0391,-4.0448,-4.0469,-4.0485,-4.05,-4.0572,-4.0599,-4.0316,-4.0316,-4.0316,0,0,-3.9934,-3.9946,-3.9987,-4.005,-4.0068,-4.0133,-4.004,-4.0112,-4.0161,-4.0087,-4.0183,-4.0189,-4.0218,-4.0335,-4.0386,-4.0345,-4.0579,-4.0501,-4.0514,-4.052,-4.0587,-4.0614,-4.0638,-4.0324,-4.0323,-4.0321,0,0,-4.0109,-4.0123,-4.0214,-4.0234,-4.0263,-4.0253,-4.0275,-4.0292,-4.0294,-4.0389,-4.0336,-4.0393,-4.0489,-4.0513,-4.0537,-4.0722,-4.0679,-4.0739,-4.0846,-4.0917,-4.0939,-4.0959,-4.1027,-4.1051,-4.0754,-4.0754,-4.0754,0,-4.0201,-4.0297,-4.0265,-4.0343,-4.0372,-4.0308,-4.0401,-4.0421,-4.0466,-4.0488,-4.044,-4.0562,-4.0576,-4.0699,-4.0744,-4.0765,-4.079,-4.0737,-4.0938,-4.0958,-4.0976,-4.104,-4.1066,-4.0761,-4.076,-4.076,-4.0759,0,-4.0411,-4.0478,-4.0548,-4.0593,-4.063,-4.0714,-4.0696,-4.0737,-4.0711,-4.0707,-4.0806,-4.0821,-4.0875,-4.0902,-4.0877,-4.1022,-4.0996,-4.0944,-4.086,-4.101,-4.1071,-4.1095,-4.0772,-4.0769,-4.0767,-4.0765,0,0,-4.0653,-4.068,-4.0707,-4.0727,-4.0754,-4.0806,-4.0888,-4.0941,-4.0979,-4.1011,-4.108,-4.1164,-4.1116,-4.1144,-4.1121,-4.1183,-4.1331,-4.1123,-4.1123,-4.1163,-4.1495,-4.1535,-4.1565,-4.1302,-4.1306,-4.131,-4.1493,0,-4.0829,-4.097,-4.0944,-4.1083,-4.1146,-4.1086,-4.1158,-4.1183,-4.1181,-4.1235,-4.1232,-4.1293,-4.1225,-4.1242,-4.13,-4.1301,-4.1397,-4.1287,-4.1367,-4.137,-4.1364,-4.1596,-4.1638,-4.1811,-4.1516,-4.152,-4.1523,0,-4.1053,-4.1095,-4.124,-4.1259,-4.1284,-4.1349,-4.1397,-4.1448,-4.1476,-4.147,-4.1502,-4.1467,-4.155,-4.1463,-4.1577,-4.1503,-4.1534,-4.1539,-4.1545,-4.1554,-4.1458,-4.1613,-4.1865,-4.1892,-4.1559,-4.1556,-4.1554,0,-4.1218,-4.1311,-4.141,-4.1429,-4.1453,-4.15,-4.1513,-4.1535,-4.1569,-4.1611,-4.1633,-4.1684,-4.1712,-4.1752,-4.1733,-4.1671,-4.1851,-4.1762,-4.185,-4.1851,-4.1893,-4.1891,-4.2156,-4.1909,-4.1909,-4.1908,-4.1908,0,-4.1419,-4.151,-4.1485,-4.1547,-4.1648,-4.1617,-4.1718,-4.1723,-4.1744,-4.1806,-4.1756,-4.1816,-4.1785,-4.1842,-4.1827,-4.1925,-4.1938,-4.1937,-4.1932,-4.1943,-4.1943,-4.1964,-4.1953,-4.1915,-4.1914,-4.1912,-4.1911,0,-4.1622,-4.1608,-4.1713,-4.1727,-4.1733,-4.1808,-4.182,-4.1878,-4.1872,-4.1951,-4.1968,-4.1959,-4.2024,-4.2008,-4.2079,-4.2069,-4.2193,-4.2172,-4.2185,-4.218,-4.227,-4.2263,-4.256,-4.2599,-4.2325,-4.2328,-4.233,0,-4.1752,-4.1821,-4.1843,-4.1881,-4.1898,-4.1959,-4.1994,-4.1966,-4.2005,-4.2042,-4.2096,-4.2157,-4.2204,-4.231,-4.2311,-4.2365,-4.2347,-4.2447,-4.2355,-4.2364,-4.2351,-4.2349,-4.2356,-4.2466,-4.2469,-4.2472,-4.2474,0,-4.1984,-4.1975,-4.2027,-4.2078,-4.2122,-4.216,-4.2194,-4.2228,-4.2203,-4.2249,-4.2315,-4.2352,-4.2424,-4.2486,-4.2536,-4.2549,-4.2509,-4.2503,-4.2527,-4.2539,-4.2545,-4.2546,-4.2237,-4.2497,-4.2494,-4.2493,-4.2491,-4.2491,-4.2156,-4.2216,-4.2242,-4.2303,-4.2325,-4.2359,-4.2414,-4.2416,-4.2471,-4.2528,-4.2508,-4.2584,-4.2611,-4.2674,-4.2693,-4.2753,-4.2715,-4.2749,-4.2758,-4.2767,-4.278,-4.2533,-4.2761,-4.276,-4.276,-4.2759,-4.2759,0,-4.2389,-4.2403,-4.2459,-4.2509,-4.2557,-4.2514,-4.2549,-4.2593,-4.2661,-4.2689,-4.2736,-4.2813,-4.2873,-4.2879,-4.2935,-4.2982,-4.2965,-4.2998,-4.2995,-4.3,-4.2809,-4.2784,-4.3011,-4.3011,-4.3011,-4.3011,-4.3011,-4.3011,-4.2516,-4.2616,-4.2609,-4.272,-4.2732,-4.2807,-4.2832,-4.2863,-4.2885,-4.2974,-4.3023,-4.3026,-4.3046,-4.3103,-4.3157,-4.3157,-4.3181,-4.3222,-4.3215,-4.3038,-4.3013,-4.2989,-4.2965,-4.3227,-4.3227,-4.3401,-4.3403,-4.3404]},{"header":{"parameterUnit":"m.s-1","parameterCategory":1,"la1":30.2991,"la2":30.254,"lo1":-89.0895,"lo2":-89.0444,"dy":0.0017,"dx":0.0017,"nx":28,"ny":28,"refTime":"2025-11-05T09:00:00:Z","depth":0,"parameterNumber":3,"parameterNumberName":"V-component_of_WINDS"},"data":[0,0,0,0,0,0,0,0,0,0,0,0,0,0,0,0,0,0,0,0,0,0,0,0,0,0,0,0,0,0,0,0,0,0,0,0,0,0,0,0,0,0,0,0,0,0,0,0,0,0,0,0,0,0,0,0,0,0,-2.307,-2.3071,0,-2.3077,-2.3077,-2.3077,-2.2998,-2.2995,-2.2993,-2.2991,-2.2998,-2.3,-2.3002,0,0,0,0,0,0,0,0,0,0,0,0,0,-2.299,-2.2992,-2.307,-2.3071,-2.3071,-2.3077,-2.3077,-2.3077,-2.2998,-2.2995,-2.2993,-2.299,-2.2997,-2.3,-2.3003,0,0,0,0,0,0,0,0,0,0,0,0,0,-2.3013,-2.2992,-2.307,-2.3032,-2.3028,-2.3077,-2.3077,-2.3077,-2.2998,-2.2995,-2.2992,-2.2989,-2.2996,-2.3,-2.3003,-2.3089,0,0,-2.3013,-2.3015,0,0,0,0,0,0,0,0,-2.3012,-2.3016,-2.3037,-2.3035,-2.3031,-2.3033,-2.3051,-2.3081,-2.2999,-2.301,-2.2991,-2.2987,-2.3012,-2.3014,-2.3023,-2.3089,-2.3089,-2.3013,-2.3015,-2.3017,-2.3018,0,0,0,0,0,0,0,-2.3011,-2.3016,-2.3073,-2.3038,-2.3034,-2.3014,-2.3014,-2.3056,-2.3029,-2.3009,-2.3003,-2.3005,-2.301,-2.302,-2.3022,-2.309,-2.3013,-2.3016,-2.3018,-2.302,-2.3229,-2.3232,0,0,0,0,0,0,-2.3014,-2.3015,-2.3073,-2.3073,-2.3013,-2.3018,-2.3018,-2.3036,-2.3029,-2.3024,-2.3008,-2.3001,-2.3016,-2.3018,-2.3022,-2.3124,-2.3017,-2.302,-2.3022,-2.3225,-2.3229,-2.3233,0,0,0,0,0,0,-2.3013,-2.302,-2.3072,-2.3042,-2.3048,-2.3023,-2.3044,-2.3038,-2.3047,-2.3028,-2.3023,-2.3022,-2.3013,-2.3017,-2.3073,-2.3123,-2.3021,-2.3024,-2.3221,-2.3226,-2.3231,-2.3327,0,0,0,0,0,0,-2.3011,-2.302,-2.3052,-2.3044,-2.305,-2.3124,-2.3047,-2.304,-2.3053,-2.3045,-2.304,-2.3037,-2.3011,-2.3069,-2.3077,-2.3126,-2.3027,-2.3216,-2.3223,-2.323,-2.332,-2.3335,-2.3349,0,0,0,0,0,-2.3008,-2.3079,-2.3054,-2.3062,-2.3089,-2.3127,-2.313,-2.3099,-2.3057,-2.309,-2.3078,-2.3037,-2.3116,-2.3075,-2.3083,-2.3134,-2.3213,-2.3221,-2.3229,-2.3313,-2.3332,-2.3348,0,0,0,0,0,0,-2.3094,-2.3077,-2.305,-2.312,-2.3125,-2.3113,-2.3153,-2.312,-2.3137,-2.3129,-2.3089,-2.3089,-2.3152,-2.3148,-2.3103,-2.3218,-2.3157,-2.3167,-2.3218,-2.3236,-2.3251,-2.3251,-2.303,0,0,0,0,0,-2.3121,-2.3152,-2.3136,-2.3199,-2.3203,-2.3178,-2.3193,-2.3169,-2.3173,-2.3175,-2.3166,-2.3172,-2.3199,-2.3217,-2.3239,-2.3318,-2.3317,-2.3357,-2.3371,-2.3383,-2.3393,-2.3437,-2.3455,-2.326,-2.3259,-2.3259,0,0,-2.3177,-2.3172,-2.3194,-2.3216,-2.3218,-2.3252,-2.3181,-2.3219,-2.3245,-2.3181,-2.3234,-2.3228,-2.3231,-2.33,-2.3329,-2.3298,-2.3447,-2.3394,-2.3403,-2.3407,-2.3447,-2.3465,-2.3482,-2.3265,-2.3264,-2.3263,0,0,-2.3297,-2.3296,-2.3349,-2.3352,-2.3356,-2.3338,-2.3351,-2.3344,-2.3338,-2.339,-2.3344,-2.3373,-2.3418,-2.3424,-2.3432,-2.3555,-2.3519,-2.3564,-2.364,-2.3683,-2.3698,-2.3712,-2.3758,-2.3775,-2.3573,-2.3573,-2.3573,0,-2.3367,-2.3417,-2.3381,-2.3424,-2.3435,-2.3379,-2.3433,-2.3438,-2.3449,-2.3458,-2.3423,-2.348,-2.3479,-2.3548,-2.3578,-2.3586,-2.3601,-2.3565,-2.3699,-2.3712,-2.3724,-2.3768,-2.3785,-2.3579,-2.3578,-2.3578,-2.3577,0,-2.3503,-2.3538,-2.3581,-2.3594,-2.361,-2.3658,-2.363,-2.3651,-2.3625,-2.3612,-2.3666,-2.3662,-2.3684,-2.3698,-2.3673,-2.3765,-2.3746,-2.3706,-2.3644,-2.3749,-2.379,-2.3806,-2.3587,-2.3585,-2.3583,-2.3582,0,0,-2.3679,-2.3671,-2.3688,-2.3693,-2.3693,-2.372,-2.3765,-2.3787,-2.3807,-2.3815,-2.3854,-2.3894,-2.3857,-2.3867,-2.3841,-2.3878,-2.3979,-2.3834,-2.3833,-2.3863,-2.4083,-2.4115,-2.4135,-2.3954,-2.3957,-2.3959,-2.4083,0,-2.3798,-2.3877,-2.3846,-2.3927,-2.396,-2.3907,-2.3947,-2.3951,-2.394,-2.3967,-2.3953,-2.3984,-2.3931,-2.3937,-2.3971,-2.396,-2.4023,-2.395,-2.3991,-2.3993,-2.3995,-2.4155,-2.419,-2.4307,-2.4098,-2.4101,-2.4103,0,-2.3948,-2.3964,-2.4049,-2.4044,-2.4056,-2.4093,-2.4111,-2.4137,-2.4141,-2.413,-2.4142,-2.4108,-2.4153,-2.4091,-2.4154,-2.4105,-2.412,-2.4116,-2.412,-2.4125,-2.4056,-2.4167,-2.4343,-2.4362,-2.4127,-2.4125,-2.4123,0,-2.4071,-2.4113,-2.417,-2.4176,-2.4171,-2.4198,-2.4197,-2.4198,-2.4213,-2.4229,-2.4239,-2.4259,-2.4271,-2.4288,-2.4262,-2.4218,-2.4329,-2.4264,-2.4323,-2.4324,-2.4351,-2.435,-2.4535,-2.4356,-2.4356,-2.4356,-2.4355,0,-2.4208,-2.4263,-2.4225,-2.4261,-2.432,-2.4284,-2.4345,-2.4338,-2.4339,-2.4373,-2.4327,-2.4359,-2.4321,-2.435,-2.4329,-2.4386,-2.439,-2.4384,-2.4379,-2.439,-2.4391,-2.4401,-2.4393,-2.436,-2.4359,-2.4358,-2.4358,0,-2.4357,-2.4333,-2.4392,-2.4383,-2.4382,-2.4427,-2.4418,-2.4451,-2.4436,-2.4479,-2.4487,-2.4464,-2.4496,-2.4471,-2.4501,-2.4487,-2.4563,-2.4544,-2.4563,-2.4558,-2.462,-2.4616,-2.482,-2.4846,-2.4648,-2.465,-2.4652,0,-2.4448,-2.4489,-2.4484,-2.4503,-2.4505,-2.4537,-2.4552,-2.4518,-2.4537,-2.4545,-2.4577,-2.4605,-2.4626,-2.4679,-2.4665,-2.4689,-2.4673,-2.4742,-2.4676,-2.4687,-2.4677,-2.4676,-2.4681,-2.4757,-2.4759,-2.4761,-2.4762,0,-2.4612,-2.4599,-2.4623,-2.4644,-2.4665,-2.4679,-2.469,-2.4709,-2.4674,-2.4697,-2.4729,-2.4746,-2.4777,-2.4807,-2.4826,-2.4825,-2.4789,-2.4783,-2.4798,-2.4812,-2.4822,-2.482,-2.4602,-2.4779,-2.4777,-2.4776,-2.4775,-2.4775,-2.4736,-2.4771,-2.4774,-2.4803,-2.4808,-2.4819,-2.485,-2.4839,-2.4866,-2.4889,-2.4867,-2.4907,-2.491,-2.4933,-2.4936,-2.4967,-2.4939,-2.496,-2.4966,-2.4973,-2.4983,-2.4815,-2.497,-2.497,-2.4969,-2.4969,-2.4968,0,-2.4901,-2.49,-2.4927,-2.4944,-2.4968,-2.4931,-2.4941,-2.4964,-2.4999,-2.5005,-2.5027,-2.5065,-2.5093,-2.5082,-2.5107,-2.5134,-2.5118,-2.5142,-2.5141,-2.5142,-2.5006,-2.4992,-2.5154,-2.5154,-2.5154,-2.5154,-2.5154,-2.5154,-2.4989,-2.5047,-2.5034,-2.5094,-2.5092,-2.5131,-2.514,-2.5151,-2.5157,-2.5201,-2.5225,-2.5217,-2.5216,-2.5241,-2.5266,-2.5262,-2.5274,-2.5305,-2.5295,-2.5169,-2.5151,-2.5134,-2.512,-2.5307,-2.5307,-2.5429,-2.543,-2.5431]}]]